Teesside, United Kingdom

10:40 PM BST on July 25, 2017 (GMT +0100)
Teesside

Weather History for EGNV - May, 2013

Change the Weather History Date:

Thursday, May 23, 2013

  Actual Average Record
Temperature  
Mean Temperature 44 °F -  
Max Temperature 50 °F 62 °F 73 °F (2001)
Min Temperature 39 °F 46 °F 37 °F (1997)
Degree Days  
Heating Degree Days 20    
Moisture  
Dew Point 34 °F    
Average Humidity 64    
Maximum Humidity 81    
Minimum Humidity 50    
Precipitation  
Precipitation 0.00 in - - ()
Sea Level Pressure  
Sea Level Pressure 29.87 in    
Wind  
Wind Speed 16 mph ()    
Max Wind Speed 25 mph    
Max Gust Speed 39 mph    
Visibility 6.1 miles    
Events Rain    
Averages and records for this station are not official NWS values.
T = Trace of Precipitation, MM = Missing Value Source: Averaged Metar Reports

Daily Weather History Graph

Daily Weather History Graph

Search for Another Location

Airport or City:

Trip Planner

Search our weather history database for the weather conditions in past years. The results will help you decide how hot, cold, wet, or windy it might be!

Date:

Astronomy

May. 23, 2013 Rise Set
Actual Time 4:47 AM BST 9:18 PM BST
Civil Twilight 3:58 AM BST 10:07 PM BST
Nautical Twilight 2:40 AM BST 11:26 PM BST
Astronomical Twilight 1:34 AM BST Sun does not set
Moon 7:18 PM BST (5/23) 3:43 AM BST (5/23)
Length of Visible Light 18h 09m
Length of Day
16h 30m
Waxing Gibbous, 96% of the Moon is Illuminated
May 23
Waxing Gibbous
May 25
Full
May 31
Last Quarter
Jun 8
New
Jun 16
First Quarter

Hourly Weather History & Observations

Time (BST) Temp. Windchill Dew Point Humidity Pressure Visibility Wind Dir Wind Speed Gust Speed Precip Events Conditions
5:50 AM 39.2 °F 33.0 °F 33.8 °F 81% 29.92 in 6.2 mi West 9.2 mph - N/A   Partly Cloudy
6:20 AM 41.0 °F 33.9 °F 33.8 °F 76% 29.92 in 6.2 mi WNW 12.7 mph - N/A   Partly Cloudy
6:50 AM 41.0 °F 32.5 °F 33.8 °F 76% 29.92 in 5.6 mi WNW 17.3 mph - N/A   Mostly Cloudy
7:20 AM 41.0 °F 32.2 °F 33.8 °F 76% 29.92 in 6.2 mi WNW 18.4 mph - N/A   Mostly Cloudy
7:50 AM 42.8 °F 34.8 °F 33.8 °F 70% 29.92 in 6.2 mi WNW 17.3 mph - N/A   Mostly Cloudy
8:20 AM 42.8 °F 34.5 °F 33.8 °F 70% 29.89 in 6.2 mi NW 18.4 mph - N/A   Scattered Clouds
8:50 AM 44.6 °F 36.6 °F 33.8 °F 66% 29.89 in 6.2 mi NW 19.6 mph - N/A   Scattered Clouds
9:20 AM 44.6 °F 36.4 °F 32.0 °F 61% 29.89 in 6.2 mi NNW 20.7 mph - N/A   Scattered Clouds
9:50 AM 44.6 °F 36.1 °F 33.8 °F 66% 29.89 in 6.2 mi NNW 21.9 mph - N/A   Scattered Clouds
10:20 AM 46.4 °F 38.1 °F 33.8 °F 62% 29.89 in 6.2 mi NNW 24.2 mph - N/A   Scattered Clouds
10:50 AM 46.4 °F 38.7 °F 33.8 °F 62% 29.89 in 6.2 mi NNW 20.7 mph - N/A   Scattered Clouds
11:20 AM 48.2 °F - 33.8 °F 58% 29.89 in 6.2 mi NNW 24.2 mph 36.8 mph N/A   Mostly Cloudy
11:50 AM 46.4 °F 37.9 °F 35.6 °F 66% 29.89 in 4.3 mi North 25.3 mph 39.1 mph N/A Rain Light Rain Showers
12:20 PM 46.4 °F 40.1 °F 37.4 °F 71% 29.89 in 6.2 mi NW 15.0 mph - N/A   Scattered Clouds
12:50 PM 50.0 °F - 33.8 °F 54% 29.86 in 6.2 mi NNW 21.9 mph - N/A   Scattered Clouds
1:20 PM 44.6 °F 37.8 °F 35.6 °F 71% 29.89 in 6.2 mi NNW 15.0 mph - N/A   Scattered Clouds
1:50 PM 48.2 °F - 35.6 °F 62% 29.86 in 6.2 mi NNW 21.9 mph - N/A   Scattered Clouds
2:20 PM 48.2 °F - 35.6 °F 62% 29.86 in 6.2 mi NNW 20.7 mph 34.5 mph N/A   Scattered Clouds
2:50 PM 50.0 °F - 33.8 °F 54% 29.86 in 6.2 mi NNW 19.6 mph - N/A Rain Light Rain Showers
3:20 PM 46.4 °F 38.7 °F 35.6 °F 66% 29.86 in 6.2 mi NW 20.7 mph 34.5 mph N/A   Scattered Clouds
3:50 PM 50.0 °F - 33.8 °F 54% 29.86 in 6.2 mi NNW 18.4 mph - N/A Rain Light Rain Showers
4:20 PM 50.0 °F - 32.0 °F 50% 29.86 in 6.2 mi NNW 20.7 mph - N/A   Scattered Clouds
4:50 PM 50.0 °F - 32.0 °F 50% 29.86 in 6.2 mi NW 17.3 mph - N/A   Scattered Clouds
5:20 PM 48.2 °F - 32.0 °F 54% 29.86 in 6.2 mi NNW 15.0 mph - N/A   Scattered Clouds
5:50 PM 48.2 °F - 32.0 °F 54% 29.83 in 6.2 mi NNW 18.4 mph - N/A   Scattered Clouds
6:20 PM 48.2 °F - 32.0 °F 54% 29.83 in 6.2 mi NW 18.4 mph 29.9 mph N/A Rain Light Rain Showers
6:50 PM 48.2 °F - 33.8 °F 58% 29.83 in 6.2 mi NNW 18.4 mph - N/A   Scattered Clouds
7:20 PM 48.2 °F - 33.8 °F 58% 29.83 in 6.2 mi NW 15.0 mph - N/A   Scattered Clouds
7:50 PM 46.4 °F 39.2 °F 32.0 °F 57% 29.83 in 6.2 mi NNW 18.4 mph - N/A   Scattered Clouds
8:20 PM 46.4 °F 38.7 °F 33.8 °F 62% 29.83 in 6.2 mi NNW 20.7 mph - N/A   Scattered Clouds
8:50 PM 46.4 °F 40.1 °F 33.8 °F 62% 29.83 in 6.2 mi NW 15.0 mph - N/A   Scattered Clouds
9:20 PM 44.6 °F 36.4 °F 33.8 °F 66% 29.83 in 6.2 mi NNW 20.7 mph - N/A   Scattered Clouds
9:50 PM 44.6 °F 37.2 °F 33.8 °F 66% 29.83 in 6.2 mi NW 17.3 mph - N/A   Scattered Clouds
10:20 PM 42.8 °F 35.4 °F 35.6 °F 76% 29.83 in 6.2 mi NW 15.0 mph - N/A   Scattered Clouds
10:50 PM 42.8 °F 34.0 °F 35.6 °F 76% 29.83 in 6.2 mi NW 20.7 mph - N/A   Scattered Clouds
11:20 PM 42.8 °F 34.0 °F 35.6 °F 76% 29.83 in 6.2 mi NNW 20.7 mph - N/A Rain Light Rain